Regional Weather Roundup
Issued by NWS

Home | Current Version | Previous Version | Text Only | Print | Product List | Glossary On
Versions: 1 2 3 4 5 6 7 8 9 10 11 12 13 14 15 16 17 18 19 20 21 22 23 24 25 26 27
000
ASUS44 KJAN 210210
RWRMS

MISSISSIPPI HOURLY WEATHER ROUNDUP
NATIONAL WEATHER SERVICE JACKSON MS
900 PM CDT FRI APR 20 2018

NOTE: "FAIR: INDICATES FEW OR NO CLOUDS BELOW 12,000 FEET WITH NO
SIGNIFICANT WEATHER AND/OR OBSTRUCTIONS TO VISIBILITY.

MSZ001>002-007>008-010>013-018>021-025>028-034>036-210300-
NORTHWEST MISSISSIPPI

CITY           SKY/WX    TMP DP  RH WIND       PRES   REMARKS
BATESVILLE       N/A    N/A N/A N/A MISG        N/A
CLARKSDALE       N/A     61  43  51 NE6       30.21R
CLEVELAND      FAIR      62  40  45 E6        30.21R
GREENWOOD      FAIR      55  46  71 CALM      30.21R
GREENVILLE     FAIR      58  39  49 E5        30.19R
OXFORD         FAIR      54  41  62 CALM      30.24S
TUNICA           N/A     55  39  54 NE6       30.22S
WINONA         FAIR      53  46  78 CALM      30.21R
$$

MSZ003>006-009-014>017-022>024-029>033-037>039-210300-
NORTHEAST MISSISSIPPI

CITY           SKY/WX    TMP DP  RH WIND       PRES   REMARKS
ABERDEEN         N/A     55  43  62 NE6       30.24S
COLUMBUS AFB   FAIR      60  37  42 E9        30.22S
CORINTH        FAIR      57  32  38 SE3       30.25R
GOLDN TRIANGLE FAIR      60  39  45 E6        30.22S
STARKVILLE     FAIR      55  41  58 E3        30.22S
TUPELO         FAIR      62  34  35 NE7       30.23S
$$

MSZ040-058-210300-
CENTRAL MISSISSIPPI

CITY           SKY/WX    TMP DP  RH WIND       PRES   REMARKS
JACKSON INTL   FAIR      55  47  74 E3        30.19R
JACKSON HAWKNS FAIR      59  45  59 E3        30.20R
MADISON        FAIR      54  46  76 CALM      30.20R
MERIDIAN KEY   FAIR      55  47  74 CALM      30.21S
MERIDIAN NAS   FAIR      57  45  64 E3        30.21S
RAYMOND        FAIR      52  50  93 CALM      30.20R
VICKSBURG VKS  CLEAR     52  48  87 CALM      30.21R
$$

MSZ059>079-210300-
SOUTH MISSISSIPPI

CITY           SKY/WX    TMP DP  RH WIND       PRES   REMARKS
COLUMBIA       FAIR      52  48  87 CALM      30.24R
HATTIESBURG    FAIR      56  49  77 CALM      30.19S
LAUREL         FAIR      59  46  61 CALM      30.20S
MCCOMB         FAIR      55  47  74 CALM      30.19R
NATCHEZ        FAIR      54  49  83 CALM      30.19R
PINE BELT      FAIR      52  49  89 CALM      30.20S
$$

MSZ080>082-210300-
COASTAL MISSISSIPPI

CITY           SKY/WX    TMP DP  RH WIND       PRES   REMARKS
BAY ST LOUIS   CLEAR     54  52  94 CALM      30.19R
BILOXI         FAIR      60  53  76 CALM      30.17R
PASCAGOULA     FAIR      52  49  89 CALM      30.19R
GULFPORT       FAIR      56  50  80 CALM      30.17R
$$

LAZ007>009-015>016-023>026-210300-
NORTHEAST LOUISIANA

CITY           SKY/WX    TMP DP  RH WIND       PRES   REMARKS
BASTROP        FAIR      49  43  78 CALM      30.20S
TALLULAH/VBURG FAIR      54  52  93 CALM      30.20R
VIDALIA        FAIR      57  47  70 CALM      30.18R
$$




USA.gov is the U.S. government's official web portal to all federal, state and local government web resources and services.